Погода в Краснознаменском

Россия / Курганская область     55°15′21″N   64°01′27″E
темп.,
°C
ветер,
м/с
пор.,
м/с
влажн.,
%
обл.,
%
осадки,
мм/ч
давл.,
гПа
погр.,
м
22 января, пт
пт2223:00−22з479521 0.0 1015110
02:00−22з369760 0.0 1015119
05:00−22з349879 0.1 101576
08:00−23з349996 0.0 101645
11:00−21з349797 0.1 1017159
14:00−19з2395100 0.1 1018243
17:00−19сз2297100 0.1 101926
20:00−22с4698100 0.1 1021188
23 января, сб
сб2323:00−28с469789 0.1 1025124
02:00−30с349850 0.0 102852
05:00−31ссз349841 0.0 103145
08:00−33ссз34982 0.0 103436
11:00−32ссз359632 0.0 1036134
14:00−30ссз239355 0.0 1037228
17:00−33сз119663 0.0 103819
20:00−32ю1193100 0.0 103919
24 января, вс
вс2423:00−30ю3593100 0.0 1038137
02:00−28ю4693100 0.0 1037223
05:00−27ююв4798100 0.3 1036233
08:00−26ююв4698100 0.6 1035245
11:00−25юв4697100 1.0 1036253
14:00−24юв3596100 0.0 1036284
17:00−24вюв3697100 0.1 1036219
20:00−23вюв4797100 0.1 1037257
25 января, пн
пн2523:00−23юв4797100 0.3 1037253
02:00−22юв479799 0.1 1035255
05:00−20юв4698100 0.6 1034255
08:00−19юв4698100 0.6 1033250
11:00−17юв4596100 1.1 1033241
14:00−15юв3495100 0.3 1032243
17:00−15юв3496100 0.7 1032103
20:00−16вюв239798 0.1 103366
26 января, вт
вт2623:00−14вюв239699 0.3 103382
02:00−15юв229699 0.1 103332
05:00−13ююв229699 0.2 103353
08:00−10ююв2396100 0.4 103393
11:00−7ююв3396100 0.6 1033109
14:00−3ююз2397100 0.2 1033178
17:00−1юз3597100 0.3 1033213
20:00−6ююз369495 0.0 1033103